• In Deutschland
  • Länderverzeichnis
  • Für 7 Tage
  • Wassertemperatur
  • Satellitenkarten
  • Wetterkarte
  • Widgets
  • user-avatar
    Anmelden

    Stündliche Wetter Soltau

    Heute, 22 Juli, Sonntag

    Zeit Temperatur Niederschläge Wind Luftdruck Luftfeuchtigkeit
    00:00 +19°C° 0,1 mm 1 m/S 753 mmHg 80%
    01:00 +19°C° 0,1 mm 1 m/S 753 mmHg 82%
    02:00 +18°C° 0,4 mm 1 m/S 753 mmHg 84%
    03:00 +18°C° 0,4 mm 1 m/S 753 mmHg 86%
    04:00 +18°C° 0,4 mm 1 m/S 753 mmHg 89%
    05:00 +19°C° 0,2 mm 1 m/S 753 mmHg 86%
    06:00 +20°C° 0,2 mm 1 m/S 753 mmHg 83%
    07:00 +21°C° 0,2 mm 1 m/S 753 mmHg 80%
    08:00 +23°C° 0 mm 2 m/S 753 mmHg 72%
    09:00 +25°C° 0 mm 2 m/S 753 mmHg 63%
    10:00 +27°C° 0 mm 2 m/S 754 mmHg 54%
    11:00 +28°C° 0 mm 3 m/S 753 mmHg 50%
    12:00 +29°C° 0 mm 3 m/S 753 mmHg 46%
    13:00 +30°C° 0 mm 4 m/S 753 mmHg 41%
    14:00 +29°C° 0 mm 4 m/S 753 mmHg 42%
    15:00 +29°C° 0 mm 4 m/S 754 mmHg 43%
    16:00 +28°C° 0 mm 4 m/S 754 mmHg 43%
    17:00 +27°C° 0 mm 4 m/S 754 mmHg 48%
    18:00 +26°C° 0 mm 4 m/S 754 mmHg 53%
    19:00 +25°C° 0 mm 4 m/S 754 mmHg 58%
    20:00 +22°C° 0 mm 3 m/S 754 mmHg 67%
    21:00 +20°C° 0 mm 3 m/S 755 mmHg 75%
    22:00 +17°C° 0 mm 2 m/S 755 mmHg 84%
    23:00 +17°C° 0 mm 2 m/S 755 mmHg 87%

    Morgen, 23 Juli, Montag

    Zeit Temperatur Niederschläge Wind Luftdruck Luftfeuchtigkeit
    00:00 +16°C° 0 mm 2 m/S 755 mmHg 90%
    01:00 +15°C° 0 mm 1 m/S 755 mmHg 93%
    02:00 +15°C° 0 mm 1 m/S 755 mmHg 93%
    03:00 +15°C° 0 mm 1 m/S 755 mmHg 94%
    04:00 +15°C° 0 mm 1 m/S 755 mmHg 94%
    05:00 +16°C° 0 mm 1 m/S 756 mmHg 89%
    06:00 +18°C° 0 mm 1 m/S 756 mmHg 83%
    07:00 +20°C° 0 mm 1 m/S 756 mmHg 77%
    08:00 +20°C° 0 mm 2 m/S 756 mmHg 70%
    09:00 +23°C° 0 mm 2 m/S 757 mmHg 63%
    10:00 +25°C° 0 mm 2 m/S 757 mmHg 55%
    11:00 +26°C° 0 mm 2 m/S 756 mmHg 53%
    12:00 +27°C° 0 mm 3 m/S 756 mmHg 50%
    13:00 +28°C° 0 mm 3 m/S 756 mmHg 47%
    14:00 +28°C° 0 mm 3 m/S 756 mmHg 48%
    15:00 +28°C° 0 mm 3 m/S 756 mmHg 49%
    16:00 +28°C° 0 mm 3 m/S 756 mmHg 50%
    17:00 +28°C° 0 mm 2 m/S 756 mmHg 54%
    18:00 +27°C° 0 mm 2 m/S 756 mmHg 57%
    19:00 +26°C° 0 mm 2 m/S 756 mmHg 60%
    20:00 +25°C° 0 mm 2 m/S 756 mmHg 68%
    21:00 +23°C° 0 mm 2 m/S 757 mmHg 75%
    22:00 +21°C° 0 mm 1 m/S 757 mmHg 82%
    23:00 +20°C° 0 mm 1 m/S 757 mmHg 84%

    übermorgen, 24 Juli, Dienstag

    Zeit Temperatur Niederschläge Wind Luftdruck Luftfeuchtigkeit
    00:00 +19°C° 0 mm 1 m/S 757 mmHg 86%
    01:00 +19°C° 0 mm 1 m/S 757 mmHg 88%
    02:00 +19°C° 0 mm 1 m/S 757 mmHg 89%
    03:00 +16°C° 0 mm 0 m/S 757 mmHg 90%
    04:00 +16°C° 0 mm 0 m/S 757 mmHg 91%
    05:00 +18°C° 0 mm 0 m/S 757 mmHg 85%
    06:00 +21°C° 0 mm 1 m/S 756 mmHg 79%
    07:00 +23°C° 0 mm 1 m/S 756 mmHg 73%
    08:00 +25°C° 0 mm 1 m/S 756 mmHg 65%
    09:00 +27°C° 0 mm 1 m/S 756 mmHg 58%
    10:00 +29°C° 0 mm 1 m/S 756 mmHg 50%
    11:00 +30°C° 0 mm 1 m/S 756 mmHg 47%
    12:00 +32°C° 0 mm 1 m/S 756 mmHg 43%
    13:00 +33°C° 0 mm 1 m/S 756 mmHg 39%
    14:00 +32°C° 0 mm 1 m/S 755 mmHg 40%
    15:00 +32°C° 0 mm 1 m/S 755 mmHg 40%
    16:00 +32°C° 0 mm 1 m/S 755 mmHg 41%
    17:00 +31°C° 0 mm 1 m/S 755 mmHg 44%
    18:00 +30°C° 0 mm 1 m/S 755 mmHg 47%
    19:00 +30°C° 0 mm 1 m/S 755 mmHg 50%
    20:00 +28°C° 0 mm 1 m/S 755 mmHg 55%
    21:00 +26°C° 0 mm 1 m/S 755 mmHg 59%
    22:00 +24°C° 0 mm 1 m/S 755 mmHg 64%
    23:00 +24°C° 0 mm 1 m/S 755 mmHg 67%

    25 Juli, Mittwoch

    Zeit Temperatur Niederschläge Wind Luftdruck Luftfeuchtigkeit
    00:00 +23°C° 0 mm 2 m/S 755 mmHg 71%
    01:00 +21°C° 0 mm 2 m/S 755 mmHg 74%
    02:00 +21°C° 0 mm 2 m/S 755 mmHg 76%
    03:00 +22°C° 0 mm 1 m/S 755 mmHg 78%
    04:00 +21°C° 0 mm 1 m/S 755 mmHg 79%
    05:00 +22°C° 0 mm 1 m/S 755 mmHg 75%
    06:00 +24°C° 0 mm 1 m/S 756 mmHg 71%
    07:00 +25°C° 0 mm 1 m/S 756 mmHg 67%
    08:00 +27°C° 0 mm 2 m/S 756 mmHg 60%
    09:00 +29°C° 0 mm 2 m/S 756 mmHg 53%
    10:00 +31°C° 0 mm 2 m/S 756 mmHg 45%
    11:00 +31°C° 0 mm 2 m/S 756 mmHg 44%
    12:00 +32°C° 0 mm 2 m/S 756 mmHg 42%
    13:00 +32°C° 0 mm 2 m/S 755 mmHg 40%
    14:00 +32°C° 0 mm 2 m/S 755 mmHg 40%
    15:00 +32°C° 0 mm 1 m/S 755 mmHg 40%
    16:00 +32°C° 0 mm 1 m/S 755 mmHg 40%
    17:00 +31°C° 0 mm 2 m/S 755 mmHg 44%
    18:00 +31°C° 0 mm 2 m/S 755 mmHg 47%
    19:00 +30°C° 0 mm 2 m/S 755 mmHg 51%
    20:00 +28°C° 0 mm 2 m/S 755 mmHg 56%
    21:00 +27°C° 0 mm 2 m/S 756 mmHg 62%
    22:00 +25°C° 0 mm 3 m/S 756 mmHg 67%
    23:00 +24°C° 0 mm 2 m/S 756 mmHg 71%

    26 Juli, Donnerstag

    Zeit Temperatur Niederschläge Wind Luftdruck Luftfeuchtigkeit
    00:00 +24°C° 0 mm 2 m/S 756 mmHg 75%
    01:00 +23°C° 0 mm 2 m/S 756 mmHg 79%
    02:00 +21°C° 0 mm 2 m/S 756 mmHg 80%
    03:00 +21°C° 0 mm 2 m/S 756 mmHg 82%
    04:00 +20°C° 0 mm 2 m/S 756 mmHg 83%
    05:00 +23°C° 0 mm 2 m/S 757 mmHg 78%
    06:00 +24°C° 0 mm 2 m/S 757 mmHg 73%
    07:00 +25°C° 0 mm 2 m/S 757 mmHg 68%
    08:00 +27°C° 0 mm 2 m/S 757 mmHg 61%
    09:00 +29°C° 0 mm 2 m/S 757 mmHg 53%
    10:00 +31°C° 0 mm 2 m/S 757 mmHg 45%
    11:00 +32°C° 0 mm 2 m/S 757 mmHg 41%
    12:00 +34°C° 0 mm 2 m/S 757 mmHg 37%
    13:00 +35°C° 0 mm 3 m/S 757 mmHg 33%
    14:00 +35°C° 0 mm 3 m/S 757 mmHg 32%
    15:00 +35°C° 0 mm 3 m/S 757 mmHg 31%
    16:00 +35°C° 0 mm 3 m/S 757 mmHg 30%
    17:00 +34°C° 0 mm 3 m/S 757 mmHg 34%
    18:00 +33°C° 0 mm 3 m/S 757 mmHg 38%
    19:00 +31°C° 0 mm 3 m/S 757 mmHg 41%
    20:00 +29°C° 0 mm 3 m/S 757 mmHg 46%
    21:00 +27°C° 0 mm 3 m/S 757 mmHg 51%
    22:00 +25°C° 0 mm 3 m/S 757 mmHg 56%
    23:00 +24°C° 0 mm 3 m/S 757 mmHg 61%

    27 Juli, Freitag

    Zeit Temperatur Niederschläge Wind Luftdruck Luftfeuchtigkeit
    00:00 +24°C° 0 mm 3 m/S 757 mmHg 65%
    01:00 +23°C° 0 mm 2 m/S 758 mmHg 70%
    02:00 +21°C° 0 mm 2 m/S 757 mmHg 73%
    03:00 +21°C° 0 mm 2 m/S 757 mmHg 76%
    04:00 +20°C° 0 mm 2 m/S 757 mmHg 80%
    05:00 +21°C° 0 mm 2 m/S 757 mmHg 76%
    06:00 +22°C° 0 mm 3 m/S 757 mmHg 72%
    07:00 +24°C° 0 mm 3 m/S 757 mmHg 68%
    08:00 +26°C° 0 mm 3 m/S 757 mmHg 60%
    09:00 +28°C° 0 mm 3 m/S 757 mmHg 52%
    10:00 +30°C° 0 mm 4 m/S 757 mmHg 43%
    11:00 +32°C° 0 mm 4 m/S 757 mmHg 39%
    12:00 +33°C° 0 mm 4 m/S 756 mmHg 35%
    13:00 +34°C° 0 mm 3 m/S 756 mmHg 31%
    14:00 +35°C° 0 mm 3 m/S 756 mmHg 30%
    15:00 +35°C° 0 mm 3 m/S 756 mmHg 29%
    16:00 +35°C° 0 mm 3 m/S 756 mmHg 29%
    17:00 +34°C° 0 mm 3 m/S 756 mmHg 33%
    18:00 +33°C° 0 mm 3 m/S 756 mmHg 37%
    19:00 +31°C° 0 mm 3 m/S 756 mmHg 41%
    20:00 +29°C° 0 mm 3 m/S 756 mmHg 47%
    21:00 +27°C° 0 mm 3 m/S 756 mmHg 53%
    22:00 +26°C° 0 mm 3 m/S 756 mmHg 58%
    23:00 +25°C° 0 mm 3 m/S 756 mmHg 63%
    Mehr zeigen